Back to catalog

STARLINK-34568

AliveCommunicationsVLEO
NORAD 64717·PAYLOAD·🇺🇸 United States

Launched Jun 28, 2025 from Vandenberg Space Force Base

Loading…

Next Passes (next 24 hours)

TLE

FreshSource: CelesTrak SupGP

Epoch: Sep 15, 2026, 03:24 UTC

1 64717C 25142X   26258.14215278 -.00040937  00000+0 -14242-2 0  2589
2 64717  70.0011 195.1277 0003255 272.8699 330.1945 15.29596257    13

Track STARLINK-34568 in real time with AllMySat

Download on the App Store